SKYSAT-C9

Last updated on Wed Jul 16 2025 00:02:31 GMT+0000 (Coordinated Universal Time)

1 42989U 17068C 25196.26461161 .00007968 00000+0 24473-3 0 9996 2 42989 97.4026 325.8481 0007217 294.4278 65.6211 15.33965768431008
UTC large
Height (km)
Speed (km/s)
/
Latitude / Longitude
Inclination (degrees)
Orbital Period (minutes)
Azimuth
Elevation
Range (km)
Doppler Factor

Next 0 passes for location: London (51.5072 / 0.1276)

Sorry there are no passes over London.